Location: Llanfihangel-Ystrad
(52.1833°N, 4.1667°W)
Time: 09:29:09
(UTC+00:00)

Cosmos 1943 - Pass Details

Date: 17 February 2020
Orbit: 832 x 852 km, 71.0° (Epoch: 09 April)

Event Time Altitude Azimuth Distance (km) Brightness Sun altitude
Rises 06:43:51 0° 218° (SW) 3,368 6.0 -7.6°
Reaches altitude 10° 06:46:18 10° 221° (SW) 2,439 5.3 -7.2°
Maximum altitude 06:51:52 67° 304° (NW) 905 3.2 -6.4°
Drops below altitude 10° 06:57:30 10° 28° (NNE) 2,464 5.8 -5.5°
Sets 06:59:59 0° 31° (NNE) 3,406 6.6 -5.2°
